This is the latest recevied weather packets stored in our database for station/object N5GC-2. If no packets are shown the sender has not sent any weather packets the latest 1 day(s).
| Time | Temp. | Humidity | Pressure | Rain* | Wind** | Luminosity | Snow |
|---|---|---|---|---|---|---|---|
| 1778100526 | 12.22° C | 93% | - | 0 mm | - | - | - |
| 1778099315 | 12.22° C | 93% | - | 0 mm | - | - | - |
| 1778097799 | 11.67° C | 93% | - | 0 mm | - | - | - |
| 1778095980 | 11.67° C | 92% | - | 3.56 mm | - | - | - |
| 1778095676 | 11.67° C | 93% | - | 3.56 mm | - | - | - |
| 1778095070 | 11.67° C | 92% | - | 3.56 mm | - | - | - |
| 1778094160 | 11.67° C | 92% | - | 1.78 mm | - | - | - |
| 1778093554 | 11.67° C | 91% | - | 0 mm | - | - | - |
| 1778092038 | 11.67° C | 90% | - | 0 mm | - | - | - |
| 1778091735 | 11.67° C | 90% | - | 0 mm | - | - | - |
| 1778091433 | 11.67° C | 90% | - | 1.78 mm | - | - | - |
| 1778088700 | 11.67° C | 88% | - | 1.78 mm | - | - | - |
| 1778088397 | 12.22° C | 88% | - | 1.78 mm | - | - | - |
| 1778087489 | 12.22° C | 81% | - | 3.56 mm | - | - | - |
| 1778087186 | 12.22° C | 81% | - | 0 mm | - | - | - |
| 1778086883 | 12.22° C | 77% | - | 0 mm | - | - | - |
| 1778086277 | 12.22° C | 78% | - | 0 mm | - | - | - |
| 1778085672 | 12.78° C | 77% | - | 0 mm | - | - | - |
| 1778084457 | 12.78° C | 77% | - | 0 mm | - | - | - |
| 1778084155 | 12.78° C | 79% | - | 0 mm | - | - | - |
| 1778081533 | 11.67° C | 83% | - | 0 mm | - | - | - |
| 1778080018 | 11.11° C | 84% | - | 0 mm | - | - | - |
| 1778077295 | 10.56° C | 87% | - | 0 mm | - | - | - |
| 1778076992 | 10° C | 88% | - | 0 mm | - | - | - |
| 1778076388 | 10° C | 91% | - | 0 mm | - | - | - |
* Rain latest hour (hover to see other rain measurements)
** Current wind speed in m/s (hover to see current wind gust speed)